星链-5351 (STARLINK-5351 )

导读 | 豆包AI

STARLINK-5351是美国太空探索技术公司 SpaceX 星链互联网卫星星座中的一员,于2023年5月14日发射入轨,星链计划旨在为全球提供高速低延迟宽带互联网服务,该卫星继承了星链系列小型化设计,运行在近地轨道,承担全球网络覆盖组网任务,补充星链星座的服务能力。

基本信息
目录编号:
56511
目录名称:
STARLINK-5351
国际标识:
2023-065J
轨道中心:
EARTH
卫星名称:
星链-5351
卫星全名:
星链-5351 (STARLINK-5351 )
卫星状态:
在轨 (已飞行1082 天)
发射日期:
2023-05-14 UTC
国别 :
美国 (US)
星等 :
--
轨道信息
数据来源 国际轨道数据
星历时间: 2026-04-30T05:37:41+0800
16小时前
查看轨道信息
半长轴: 6861.193km
偏心率: 0.0001074
轨道倾角: 43.001°
近地点辐角 275.584°
升交点赤经 283.111°
平近点角 84.489°
近地点: 482.319km
远地点: 483.793km
周期: 94.267分钟
每日圈数: 15.275779
详细信息
固有亮度:
5
最大亮度:
2.5
卫星平台:
Starlink v1.5
覆盖范围:
全球
运营商:
太空探索技术公司
运营商所在国:
美国
制造商(研发单位):
太空探索技术公司
制造商所在国:
美国
使用方式:
暂无
卫星简介
星链(Starlink)计划是由太空探索技术公司(SpaceX)提出的一个巨型低轨卫星互联网星座项目,计划在2019年至2024年间在太空搭建由约1.2万颗卫星组成的“星链”网络,其中1584颗将部署在地球上空550千米处的近地轨道,并从2020年开始工作。该卫星仍在工作。
2D轨道图
3D轨道图
轨道高度分析图
轨道倾角分析图
轨道综合分析图
查看轨道综合分析图